Погода в Верхней Маре

Россия / Карачаево-Черкесская Республика     43°46′15″N   42°08′20″E
темп.,
°C
ветер,
м/с
пор.,
м/с
влажн.,
%
обл.,
%
осадки,
мм/ч
давл.,
гПа
погр.,
м
27 января, чт
чт2700:00−13вюв0196100 0.0 101910
03:00−14юв219665 0.1 102010
06:00−15юв229572 0.0 102111
09:00−11ююв229129 0.0 101925
12:00−6зсз218562 0.0 1015373
15:00−7ссз2294100 0.4 1015348
18:00−10ссз1197100 0.8 101920
21:00−15ююв229898 1.1 102311
28 января, пт
пт2800:00−16ююв229977 0.1 102521
03:00−18ююв32849 0.1 102715
06:00−16ююв327898 0.0 102618
09:00−14ююв227872 0.0 102533
12:00−8зюз247023 0.0 1020495
15:00−7з257496 0.0 1018717
18:00−15ююв22895 0.0 102510
21:00−17юв32825 0.0 102813
29 января, сб
сб2900:00−17юв33735 0.0 102815
03:00−16юв336673 0.0 102716
06:00−14ююв326695 0.0 102521
09:00−11ююв336864 0.0 102444
12:00−6юз236097 0.0 1020304
15:00−4юз256968 0.0 1019804
18:00−9ю2281100 0.0 102221
21:00−11ююв3279100 0.0 102521
30 января, вс
вс3000:00−11ююв3277100 0.0 102520
03:00−11ююв2277100 0.0 102419
06:00−12ююв3277100 0.0 102419
09:00−10ююв227739 0.0 102430
12:00−5юз136992 0.0 1019381
15:00−4сз23765 0.0 1016409
18:00−12ююв32875 0.0 102111
21:00−14ююв33760 0.0 102117
31 января, пн
пн3100:00−14ююв437311 0.0 101923
03:00−14ююв337464 0.0 101923
06:00−11ююв3482100 0.2 101653
09:00−8ю3481100 0.3 1014101
12:00−4ююз58655 0.0 1011937
15:00−3зюз46680 0.0 1010343
18:00−10ю338221 0.1 101825
21:00−13ююв337511 0.1 102024